QPF
0.02 0.03 0.04 0.03 0.03 0.03 0.02 0.02 0.03 0.05 0.07 0.09 0.09 0.12 0.20 0.20 0.19 0.12 0.05 0.02 0.01 0.01 0.01 0.01 0.00 0.00 0.00 0.00 0.00 0.00 0.00 0.00 0.00 0.00 0.00 0.00 0.00 0.00 0.00 0.00 0.00 0.00 0.01 0.01
0.03 0.02 0.04 0.05 0.03 0.03 0.02 0.02 0.03 0.05 0.08 0.09 0.12 0.13 0.17 0.13 0.14 0.10 0.06 0.02 0.01 0.01 0.01 0.00 0.00 0.00 0.00 0.00 0.00 0.00 0.00 0.00 0.00 0.00 0.00 0.00 0.00 0.00 0.00 0.00 0.00 0.00 0.00 0.00
0.04 0.03 0.03 0.06 0.05 0.05 0.05 0.04 0.04 0.05 0.06 0.07 0.09 0.13 0.15 0.15 0.08 0.05 0.03 0.01 0.01 0.02 0.02 0.01 0.00 0.00 0.00 0.00 0.00 0.00 0.00 0.00 0.01 0.01 0.01 0.01 0.01 0.00 0.00 0.00 0.00 0.01 0.00 0.00
0.04 0.05 0.07 0.09 0.06 0.05 0.07 0.07 0.06 0.07 0.07 0.08 0.08 0.07 0.08 0.08 0.06 0.04 0.04 0.03 0.02 0.02 0.02 0.01 0.01 0.00 0.00 0.00 0.00 0.00 0.00 0.01 0.01 0.01 0.01 0.01 0.00 0.00 0.00 0.00 0.00 0.01 0.01 0.00
0.05 0.07 0.09 0.11 0.07 0.05 0.07 0.09 0.08 0.07 0.07 0.06 0.06 0.06 0.07 0.06 0.06 0.05 0.05 0.04 0.02 0.02 0.02 0.02 0.01 0.01 0.00 0.00 0.00 0.00 0.01 0.01 0.01 0.00 0.00 0.01 0.00 0.00 0.00 0.00 0.01 0.01 0.01 0.01
0.06 0.08 0.10 0.12 0.09 0.04 0.05 0.11 0.09 0.07 0.07 0.05 0.04 0.04 0.05 0.05 0.05 0.05 0.05 0.04 0.02 0.01 0.02 0.02 0.01 0.01 0.01 0.01 0.01 0.01 0.00 0.00 0.01 0.01 0.00 0.01 0.01 0.01 0.01 0.01 0.01 0.01 0.01 0.01
0.06 0.08 0.10 0.08 0.06 0.03 0.06 0.08 0.07 0.05 0.05 0.05 0.04 0.03 0.03 0.05 0.05 0.05 0.04 0.02 0.02 0.02 0.01 0.01 0.01 0.01 0.01 0.02 0.01 0.00 0.00 0.00 0.01 0.01 0.01 0.01 0.00 0.01 0.01 0.01 0.01 0.01 0.00 0.01
0.09 0.09 0.10 0.08 0.04 0.04 0.05 0.06 0.05 0.04 0.04 0.03 0.03 0.02 0.02 0.03 0.03 0.02 0.01 0.01 0.01 0.01 0.01 0.02 0.02 0.01 0.02 0.02 0.01 0.01 0.01 0.01 0.01 0.01 0.01 0.01 0.01 0.01 0.01 0.01 0.01 0.01 0.01 0.01
0.08 0.11 0.10 0.07 0.05 0.04 0.03 0.03 0.04 0.05 0.06 0.04 0.02 0.02 0.02 0.01 0.01 0.01 0.01 0.00 0.01 0.01 0.01 0.01 0.02 0.02 0.02 0.02 0.02 0.02 0.01 0.01 0.01 0.01 0.01 0.01 0.01 0.01 0.01 0.01 0.01 0.00 0.00 0.00
0.09 0.10 0.09 0.07 0.04 0.02 0.03 0.03 0.04 0.07 0.06 0.07 0.03 0.02 0.01 0.01 0.01 0.01 0.01 0.00 0.00 0.01 0.01 0.01 0.02 0.03 0.02 0.02 0.01 0.02 0.02 0.01 0.01 0.01 0.01 0.01 0.01 0.01 0.01 0.01 0.01 0.01 0.00 0.00
0.07 0.10 0.07 0.04 0.02 0.01 0.04 0.08 0.06 0.06 0.06 0.05 0.03 0.01 0.01 0.01 0.00 0.01 0.01 0.01 0.01 0.01 0.01 0.01 0.01 0.02 0.02 0.02 0.02 0.01 0.02 0.01 0.01 0.01 0.01 0.01 0.01 0.00 0.00 0.00 0.01 0.00 0.00 0.00
0.03 0.03 0.03 0.02 0.01 0.01 0.02 0.04 0.04 0.03 0.03 0.03 0.01 0.00 0.00 0.00 0.00 0.00 0.01 0.02 0.03 0.02 0.01 0.01 0.01 0.01 0.01 0.01 0.01 0.01 0.02 0.01 0.01 0.01 0.00 0.01 0.00 0.00 0.00 0.00 0.00 0.00 0.00 0.00
0.01 0.01 0.01 0.01 0.01 0.01 0.01 0.02 0.03 0.02 0.02 0.01 0.00 0.00 0.00 0.00 0.00 0.00 0.01 0.02 0.02 0.02 0.01 0.01 0.01 0.01 0.01 0.01 0.01 0.01 0.01 0.01 0.00 0.00 0.00 0.00 0.01 0.00 0.00 0.00 0.00 0.00 0.00 0.00
0.00 0.00 0.01 0.01 0.02 0.02 0.01 0.01 0.02 0.02 0.02 0.02 0.01 0.00 0.00 0.00 0.00 0.01 0.01 0.01 0.01 0.01 0.01 0.01 0.01 0.01 0.00 0.01 0.01 0.01 0.01 0.00 0.00 0.00 0.00 0.00 0.00 0.00 0.00 0.00 0.00 0.00 0.00 0.00
0.00 0.00 0.00 0.01 0.01 0.01 0.01 0.02 0.02 0.02 0.02 0.02 0.01 0.00 0.00 0.00 0.00 0.01 0.01 0.00 0.01 0.01 0.01 0.01 0.01 0.01 0.00 0.00 0.01 0.01 0.00 0.00 0.00 0.00 0.00 0.00 0.00 0.00 0.00 0.00 0.00 0.00 0.00 0.00
0.00 0.01 0.01 0.01 0.02 0.02 0.01 0.01 0.01 0.02 0.02 0.01 0.01 0.00 0.00 0.00 0.00 0.00 0.00 0.00 0.01 0.01 0.01 0.00 0.00 0.00 0.00 0.00 0.00 0.00 0.00 0.00 0.00 0.00 0.00 0.00 0.00 0.00 0.00 0.00 0.00 0.00 0.00 0.00
0.00 0.01 0.01 0.01 0.01 0.01 0.01 0.01 0.01 0.01 0.01 0.01 0.00 0.00 0.00 0.00 0.00 0.00 0.00 0.00 0.00 0.00 0.01 0.01 0.00 0.00 0.00 0.00 0.00 0.00 0.00 0.00 0.00 0.00 0.00 0.00 0.00 0.00 0.00 0.00 0.00 0.00 0.00 0.00
0.00 0.00 0.00 0.00 0.01 0.01 0.01 0.00 0.00 0.01 0.01 0.01 0.00 0.00 0.00 0.00 0.00 0.00 0.00 0.00 0.00 0.01 0.00 0.01 0.00 0.00 0.00 0.00 0.00 0.00 0.00 0.00 0.00 0.00 0.00 0.00 0.00 0.00 0.00 0.00 0.00 0.00 0.00 0.00
0.00 0.00 0.00 0.00 0.00 0.00 0.00 0.00 0.00 0.01 0.01 0.00 0.00 0.00 0.00 0.00 0.00 0.00 0.00 0.00 0.00 0.01 0.00 0.00 0.00 0.00 0.00 0.00 0.00 0.00 0.00 0.00 0.00 0.00 0.00 0.00 0.00 0.00 0.00 0.00 0.00 0.00 0.00 0.00
0.00 0.01 0.00 0.00 0.00 0.00 0.00 0.00 0.00 0.00 0.00 0.00 0.00 0.00 0.00 0.00 0.00 0.00 0.00 0.00 0.00 0.00 0.00 0.00 0.00 0.00 0.00 0.00 0.00 0.00 0.00 0.00 0.00 0.00 0.00 0.00 0.00 0.00 0.00 0.00 0.00 0.00 0.00 0.00
0.00 0.00 0.00 0.00 0.00 0.01 0.01 0.01 0.00 0.00 0.00 0.00 0.00 0.00 0.00 0.00 0.00 0.00 0.00 0.00 0.00 0.00 0.00 0.00 0.00 0.00 0.00 0.00 0.00 0.00 0.00 0.00 0.00 0.00 0.00 0.00 0.00 0.00 0.00 0.00 0.00 0.00 0.00 0.00
0.00 0.00 0.00 0.01 0.01 0.00 0.01 0.01 0.00 0.00 0.00 0.00 0.00 0.00 0.00 0.00 0.00 0.00 0.00 0.00 0.00 0.00 0.00 0.00 0.00 0.00 0.00 0.00 0.00 0.00 0.00 0.00 0.00 0.00 0.00 0.00 0.00 0.00 0.00 0.00 0.00 0.00 0.00 0.00
0.00 0.00 0.00 0.01 0.01 0.00 0.00 0.01 0.01 0.01 0.00 0.00 0.00 0.00 0.00 0.00 0.00 0.00 0.00 0.00 0.00 0.00 0.00 0.00 0.00 0.00 0.00 0.00 0.00 0.00 0.00 0.00 0.00 0.00 0.00 0.00 0.00 0.00 0.00 0.00 0.00 0.00 0.00 0.00
0.00 0.00 0.00 0.00 0.00 0.00 0.01 0.01 0.00 0.01 0.01 0.00 0.00 0.00 0.00 0.00 0.00 0.00 0.00 0.01 0.01 0.00 0.00 0.00 0.00 0.00 0.00 0.00 0.00 0.00 0.00 0.00 0.00 0.00 0.00 0.00 0.00 0.00 0.00 0.00 0.00 0.00 0.00 0.00
0.00 0.01 0.00 0.00 0.01 0.01 0.01 0.00 0.00 0.00 0.01 0.01 0.00 0.00 0.00 0.00 0.00 0.00 0.00 0.00 0.00 0.00 0.00 0.00 0.00 0.00 0.00 0.00 0.00 0.00 0.00 0.00 0.00 0.00 0.00 0.00 0.00 0.00 0.00 0.00 0.00 0.00 0.00 0.00
0.01 0.00 0.01 0.01 0.00 0.00 0.00 0.00 0.00 0.00 0.01 0.01 0.01 0.01 0.00 0.00 0.00 0.00 0.00 0.00 0.00 0.00 0.00 0.00 0.00 0.00 0.00 0.00 0.00 0.00 0.00 0.00 0.00 0.00 0.00 0.00 0.00 0.00 0.00 0.00 0.00 0.00 0.00 0.00
0.01 0.01 0.01 0.01 0.01 0.01 0.01 0.01 0.01 0.01 0.01 0.01 0.01 0.01 0.01 0.00 0.00 0.00 0.00 0.00 0.00 0.00 0.00 0.00 0.00 0.00 0.00 0.00 0.00 0.00 0.00 0.00 0.00 0.00 0.00 0.00 0.00 0.00 0.00 0.00 0.00 0.00 0.00 0.00
MSLP
1016.30 1016.31 1016.33 1016.37 1016.41 1016.45 1016.48 1016.48 1016.45 1016.40 1016.33 1016.27 1016.25 1016.32 1016.48 1016.76 1017.15 1017.64 1018.19 1018.77 1019.32 1019.83 1020.25 1020.58 1020.81 1020.96 1021.03 1021.05 1021.03 1020.99 1020.94 1020.86 1020.77 1020.65 1020.49 1020.28 1020.03 1019.73 1019.39 1018.99 1018.55 1018.05 1017.51 1016.92
1016.73 1016.72 1016.67 1016.60 1016.51 1016.42 1016.34 1016.27 1016.22 1016.20 1016.22 1016.29 1016.43 1016.64 1016.92 1017.28 1017.69 1018.15 1018.62 1019.07 1019.50 1019.86 1020.17 1020.41 1020.59 1020.72 1020.81 1020.88 1020.93 1020.95 1020.96 1020.93 1020.87 1020.77 1020.63 1020.43 1020.19 1019.91 1019.59 1019.24 1018.85 1018.42 1017.96 1017.46
1017.15 1017.11 1017.01 1016.86 1016.68 1016.51 1016.36 1016.26 1016.22 1016.25 1016.37 1016.56 1016.83 1017.16 1017.54 1017.95 1018.36 1018.77 1019.15 1019.48 1019.76 1019.99 1020.18 1020.32 1020.45 1020.56 1020.66 1020.76 1020.85 1020.93 1020.99 1021.01 1020.99 1020.91 1020.79 1020.62 1020.41 1020.17 1019.89 1019.59 1019.27 1018.93 1018.56 1018.16
1017.49 1017.42 1017.28 1017.07 1016.84 1016.62 1016.44 1016.34 1016.34 1016.44 1016.65 1016.95 1017.33 1017.77 1018.22 1018.67 1019.09 1019.45 1019.74 1019.96 1020.13 1020.24 1020.32 1020.38 1020.45 1020.53 1020.63 1020.75 1020.87 1020.98 1021.08 1021.14 1021.15 1021.11 1021.02 1020.88 1020.71 1020.51 1020.29 1020.05 1019.80 1019.54 1019.26 1018.96
1017.68 1017.58 1017.39 1017.15 1016.88 1016.65 1016.48 1016.40 1016.45 1016.63 1016.93 1017.34 1017.83 1018.35 1018.87 1019.36 1019.77 1020.10 1020.34 1020.49 1020.57 1020.60 1020.60 1020.60 1020.63 1020.68 1020.77 1020.88 1021.02 1021.15 1021.27 1021.35 1021.39 1021.38 1021.32 1021.22 1021.09 1020.93 1020.77 1020.59 1020.40 1020.21 1020.00 1019.78
1017.70 1017.54 1017.31 1017.04 1016.77 1016.54 1016.40 1016.38 1016.50 1016.76 1017.15 1017.66 1018.23 1018.83 1019.41 1019.93 1020.37 1020.69 1020.91 1021.02 1021.06 1021.04 1021.00 1020.96 1020.96 1020.99 1021.06 1021.17 1021.30 1021.44 1021.56 1021.66 1021.71 1021.73 1021.70 1021.63 1021.54 1021.43 1021.31 1021.17 1021.03 1020.89 1020.73 1020.57
1017.52 1017.31 1017.04 1016.76 1016.50 1016.31 1016.22 1016.27 1016.47 1016.81 1017.30 1017.88 1018.53 1019.19 1019.82 1020.38 1020.84 1021.18 1021.40 1021.51 1021.54 1021.51 1021.46 1021.42 1021.40 1021.41 1021.47 1021.57 1021.69 1021.81 1021.93 1022.03 1022.09 1022.13 1022.13 1022.09 1022.04 1021.97 1021.88 1021.78 1021.68 1021.56 1021.43 1021.30
1017.19 1016.93 1016.64 1016.37 1016.15 1016.01 1016.00 1016.14 1016.42 1016.85 1017.41 1018.06 1018.76 1019.47 1020.13 1020.71 1021.19 1021.55 1021.79 1021.93 1021.97 1021.97 1021.93 1021.90 1021.88 1021.89 1021.93 1022.01 1022.11 1022.22 1022.33 1022.42 1022.50 1022.55 1022.57 1022.57 1022.55 1022.51 1022.46 1022.39 1022.30 1022.20 1022.08 1021.96
1016.76 1016.47 1016.19 1015.96 1015.81 1015.76 1015.85 1016.08 1016.45 1016.96 1017.58 1018.27 1019.00 1019.71 1020.38 1020.97 1021.46 1021.83 1022.09 1022.25 1022.33 1022.35 1022.35 1022.33 1022.32 1022.34 1022.37 1022.44 1022.52 1022.61 1022.71 1022.80 1022.88 1022.95 1023.00 1023.03 1023.05 1023.04 1023.01 1022.96 1022.89 1022.79 1022.68 1022.56
1016.29 1016.01 1015.78 1015.62 1015.57 1015.64 1015.84 1016.17 1016.64 1017.21 1017.87 1018.57 1019.29 1019.99 1020.63 1021.19 1021.66 1022.02 1022.29 1022.47 1022.58 1022.63 1022.66 1022.67 1022.68 1022.70 1022.73 1022.79 1022.86 1022.94 1023.03 1023.12 1023.22 1023.30 1023.38 1023.45 1023.50 1023.52 1023.52 1023.49 1023.43 1023.33 1023.22 1023.09
1015.84 1015.61 1015.46 1015.41 1015.48 1015.68 1016.01 1016.45 1016.99 1017.62 1018.29 1018.98 1019.66 1020.31 1020.89 1021.39 1021.82 1022.15 1022.40 1022.58 1022.71 1022.78 1022.84 1022.87 1022.90 1022.94 1022.98 1023.03 1023.10 1023.17 1023.27 1023.37 1023.48 1023.59 1023.70 1023.80 1023.89 1023.94 1023.96 1023.95 1023.90 1023.81 1023.69 1023.55
1015.44 1015.28 1015.24 1015.32 1015.52 1015.86 1016.31 1016.85 1017.47 1018.12 1018.79 1019.45 1020.07 1020.64 1021.14 1021.57 1021.92 1022.20 1022.42 1022.59 1022.71 1022.81 1022.88 1022.94 1022.99 1023.04 1023.10 1023.16 1023.23 1023.32 1023.42 1023.54 1023.67 1023.81 1023.95 1024.09 1024.20 1024.28 1024.33 1024.33 1024.28 1024.19 1024.08 1023.94
1015.08 1015.01 1015.07 1015.28 1015.62 1016.08 1016.64 1017.27 1017.93 1018.61 1019.26 1019.88 1020.43 1020.91 1021.33 1021.67 1021.95 1022.17 1022.35 1022.49 1022.61 1022.71 1022.80 1022.89 1022.96 1023.04 1023.11 1023.19 1023.28 1023.39 1023.51 1023.65 1023.80 1023.97 1024.14 1024.30 1024.44 1024.54 1024.60 1024.62 1024.58 1024.49 1024.37 1024.23
1014.73 1014.74 1014.90 1015.21 1015.66 1016.22 1016.86 1017.55 1018.25 1018.93 1019.57 1020.14 1020.63 1021.04 1021.38 1021.65 1021.87 1022.04 1022.18 1022.31 1022.42 1022.53 1022.64 1022.74 1022.84 1022.95 1023.05 1023.16 1023.27 1023.40 1023.54 1023.71 1023.89 1024.08 1024.27 1024.45 1024.61 1024.72 1024.79 1024.81 1024.77 1024.69 1024.57 1024.42
1014.36 1014.43 1014.66 1015.04 1015.56 1016.17 1016.86 1017.58 1018.30 1018.98 1019.60 1020.14 1020.59 1020.96 1021.25 1021.48 1021.66 1021.80 1021.93 1022.04 1022.16 1022.28 1022.41 1022.54 1022.67 1022.80 1022.93 1023.07 1023.22 1023.37 1023.55 1023.73 1023.93 1024.14 1024.34 1024.54 1024.70 1024.82 1024.90 1024.91 1024.88 1024.79 1024.67 1024.53
1013.97 1014.07 1014.32 1014.73 1015.26 1015.89 1016.59 1017.31 1018.03 1018.70 1019.31 1019.84 1020.28 1020.64 1020.92 1021.15 1021.32 1021.47 1021.60 1021.73 1021.86 1022.00 1022.15 1022.31 1022.46 1022.62 1022.79 1022.96 1023.13 1023.31 1023.51 1023.72 1023.93 1024.15 1024.36 1024.56 1024.72 1024.84 1024.91 1024.93 1024.89 1024.81 1024.69 1024.55
1013.59 1013.67 1013.91 1014.29 1014.79 1015.40 1016.07 1016.76 1017.46 1018.12 1018.73 1019.27 1019.73 1020.12 1020.43 1020.68 1020.90 1021.07 1021.24 1021.39 1021.55 1021.71 1021.88 1022.06 1022.24 1022.43 1022.61 1022.81 1023.01 1023.21 1023.43 1023.65 1023.88 1024.10 1024.31 1024.50 1024.66 1024.78 1024.85 1024.86 1024.83 1024.76 1024.65 1024.52
1013.24 1013.29 1013.48 1013.80 1014.24 1014.78 1015.39 1016.04 1016.70 1017.35 1017.96 1018.53 1019.03 1019.46 1019.83 1020.15 1020.42 1020.65 1020.86 1021.06 1021.25 1021.43 1021.62 1021.81 1022.01 1022.21 1022.41 1022.62 1022.84 1023.06 1023.29 1023.52 1023.75 1023.97 1024.18 1024.37 1024.52 1024.63 1024.70 1024.72 1024.70 1024.64 1024.55 1024.45
1013.00 1013.00 1013.12 1013.36 1013.71 1014.16 1014.68 1015.27 1015.88 1016.51 1017.13 1017.72 1018.27 1018.77 1019.22 1019.61 1019.95 1020.25 1020.51 1020.74 1020.96 1021.16 1021.36 1021.56 1021.75 1021.96 1022.17 1022.39 1022.61 1022.84 1023.08 1023.31 1023.54 1023.76 1023.96 1024.14 1024.28 1024.39 1024.46 1024.49 1024.49 1024.46 1024.40 1024.34
1012.90 1012.86 1012.92 1013.07 1013.32 1013.66 1014.09 1014.59 1015.15 1015.74 1016.36 1016.97 1017.56 1018.12 1018.63 1019.10 1019.50 1019.86 1020.17 1020.44 1020.67 1020.88 1021.08 1021.28 1021.47 1021.67 1021.88 1022.10 1022.33 1022.56 1022.80 1023.03 1023.26 1023.47 1023.66 1023.82 1023.96 1024.06 1024.14 1024.19 1024.21 1024.21 1024.19 1024.17
1012.97 1012.90 1012.89 1012.96 1013.11 1013.35 1013.68 1014.09 1014.58 1015.12 1015.72 1016.33 1016.95 1017.55 1018.11 1018.62 1019.08 1019.48 1019.83 1020.12 1020.36 1020.58 1020.77 1020.96 1021.15 1021.34 1021.55 1021.77 1021.99 1022.23 1022.46 1022.69 1022.90 1023.10 1023.28 1023.43 1023.56 1023.66 1023.74 1023.80 1023.85 1023.88 1023.91 1023.93
1013.18 1013.09 1013.04 1013.04 1013.10 1013.24 1013.46 1013.78 1014.18 1014.66 1015.21 1015.80 1016.42 1017.03 1017.62 1018.16 1018.65 1019.07 1019.43 1019.74 1019.99 1020.21 1020.40 1020.58 1020.77 1020.96 1021.17 1021.39 1021.62 1021.85 1022.08 1022.31 1022.51 1022.70 1022.86 1022.99 1023.10 1023.20 1023.28 1023.35 1023.41 1023.47 1023.54 1023.60
1013.48 1013.39 1013.30 1013.24 1013.22 1013.26 1013.39 1013.60 1013.91 1014.32 1014.80 1015.35 1015.93 1016.52 1017.10 1017.65 1018.14 1018.58 1018.95 1019.26 1019.52 1019.74 1019.94 1020.13 1020.32 1020.53 1020.75 1020.98 1021.22 1021.46 1021.69 1021.91 1022.10 1022.27 1022.41 1022.52 1022.61 1022.69 1022.76 1022.83 1022.90 1022.98 1023.07 1023.16
1013.79 1013.71 1013.60 1013.48 1013.39 1013.35 1013.37 1013.49 1013.70 1014.01 1014.41 1014.89 1015.42 1015.97 1016.52 1017.05 1017.53 1017.96 1018.33 1018.65 1018.92 1019.16 1019.38 1019.59 1019.81 1020.04 1020.28 1020.54 1020.79 1021.05 1021.28 1021.50 1021.68 1021.83 1021.94 1022.03 1022.09 1022.15 1022.20 1022.25 1022.32 1022.41 1022.50 1022.61
1014.06 1013.97 1013.84 1013.68 1013.52 1013.40 1013.34 1013.35 1013.47 1013.68 1013.99 1014.38 1014.84 1015.33 1015.84 1016.33 1016.79 1017.21 1017.58 1017.91 1018.20 1018.46 1018.71 1018.96 1019.22 1019.49 1019.77 1020.06 1020.35 1020.62 1020.87 1021.08 1021.25 1021.38 1021.47 1021.52 1021.55 1021.57 1021.60 1021.63 1021.69 1021.76 1021.86 1021.98
1014.23 1014.13 1013.97 1013.77 1013.56 1013.36 1013.22 1013.15 1013.18 1013.30 1013.52 1013.82 1014.20 1014.62 1015.07 1015.51 1015.94 1016.35 1016.72 1017.06 1017.37 1017.67 1017.96 1018.26 1018.56 1018.88 1019.21 1019.54 1019.86 1020.15 1020.41 1020.62 1020.78 1020.89 1020.95 1020.97 1020.97 1020.96 1020.96 1020.97 1021.00 1021.07 1021.16 1021.27
1014.26 1014.15 1013.96 1013.73 1013.47 1013.23 1013.02 1012.89 1012.83 1012.87 1013.01 1013.23 1013.53 1013.88 1014.27 1014.67 1015.06 1015.44 1015.81 1016.15 1016.49 1016.81 1017.15 1017.49 1017.84 1018.20 1018.57 1018.94 1019.28 1019.59 1019.86 1020.08 1020.23 1020.32 1020.36 1020.36 1020.34 1020.30 1020.27 1020.26 1020.27 1020.33 1020.41 1020.52
Thickness
5662 5670 5672 5672 5675 5676 5671 5666 5656 5658 5656 5655 5653 5650 5645 5639 5630 5623 5616 5610 5605 5599 5593 5588 5583 5579 5576 5573 5570 5569 5567 5565 5564 5564 5564 5565 5565 5565 5565 5565 5566 5566 5567 5567
5657 5669 5670 5667 5671 5673 5673 5670 5663 5660 5654 5657 5651 5644 5637 5630 5624 5617 5611 5605 5599 5593 5587 5581 5576 5571 5568 5565 5562 5561 5559 5558 5557 5556 5556 5556 5555 5556 5556 5555 5556 5557 5556 5557
5641 5657 5659 5650 5660 5664 5664 5665 5662 5653 5650 5649 5641 5636 5630 5625 5619 5613 5607 5600 5593 5587 5580 5574 5569 5564 5560 5557 5555 5553 5552 5551 5550 5549 5548 5548 5548 5547 5547 5546 5547 5547 5547 5548
5634 5641 5634 5647 5665 5667 5660 5655 5657 5654 5648 5644 5638 5631 5625 5620 5614 5607 5600 5593 5586 5579 5572 5566 5561 5557 5554 5551 5549 5547 5545 5544 5542 5542 5541 5540 5539 5538 5538 5538 5538 5538 5538 5539
5627 5627 5635 5651 5659 5658 5651 5645 5649 5646 5641 5635 5630 5622 5615 5613 5609 5602 5594 5586 5578 5572 5566 5560 5555 5551 5548 5545 5543 5541 5539 5537 5536 5535 5534 5533 5532 5531 5531 5530 5530 5531 5531 5532
5628 5626 5626 5638 5657 5662 5653 5636 5644 5641 5634 5629 5624 5613 5608 5606 5601 5593 5586 5579 5572 5566 5560 5554 5549 5546 5542 5539 5537 5535 5533 5531 5530 5529 5529 5527 5526 5525 5524 5524 5524 5525 5524 5524
5626 5624 5631 5645 5656 5659 5636 5633 5641 5638 5632 5626 5621 5616 5610 5602 5594 5586 5579 5573 5567 5560 5554 5548 5544 5541 5537 5534 5531 5530 5529 5527 5526 5524 5523 5522 5521 5520 5519 5519 5518 5518 5518 5518
5624 5620 5625 5646 5649 5640 5635 5641 5639 5633 5628 5622 5616 5610 5603 5596 5587 5580 5573 5566 5560 5553 5548 5543 5540 5536 5533 5529 5528 5527 5525 5523 5522 5520 5520 5519 5517 5516 5515 5514 5513 5512 5512 5512
5627 5626 5637 5643 5642 5643 5641 5637 5634 5628 5623 5618 5611 5604 5597 5588 5581 5574 5568 5561 5555 5549 5544 5539 5536 5534 5530 5527 5525 5524 5522 5520 5518 5517 5516 5515 5514 5513 5511 5511 5510 5509 5508 5508
5631 5635 5640 5640 5640 5641 5639 5636 5633 5628 5621 5615 5607 5599 5591 5583 5576 5570 5563 5557 5551 5546 5541 5536 5533 5531 5528 5526 5524 5521 5519 5517 5516 5514 5513 5512 5511 5510 5509 5508 5508 5507 5506 5505
5630 5635 5638 5638 5639 5638 5636 5633 5628 5623 5618 5612 5604 5595 5588 5580 5573 5567 5561 5555 5549 5544 5540 5535 5532 5529 5527 5525 5522 5519 5517 5515 5514 5512 5510 5509 5508 5507 5507 5507 5508 5508 5507 5506
5629 5637 5634 5633 5638 5638 5633 5628 5624 5618 5612 5606 5600 5593 5585 5577 5571 5565 5559 5553 5548 5543 5539 5535 5532 5528 5526 5524 5521 5518 5516 5515 5513 5511 5510 5509 5507 5506 5507 5508 5509 5510 5510 5509
5643 5645 5641 5640 5639 5636 5631 5626 5622 5617 5610 5603 5596 5590 5583 5575 5569 5563 5558 5553 5548 5544 5540 5536 5532 5529 5527 5525 5522 5519 5517 5515 5514 5513 5511 5510 5509 5508 5507 5508 5510 5510 5511 5511
5649 5646 5640 5638 5635 5633 5630 5625 5620 5614 5608 5602 5595 5588 5581 5574 5568 5563 5558 5554 5550 5545 5541 5537 5534 5531 5529 5527 5524 5522 5520 5519 5517 5516 5515 5514 5513 5512 5510 5510 5510 5510 5513 5514
5648 5646 5640 5638 5634 5630 5627 5622 5615 5609 5604 5598 5593 5586 5580 5574 5569 5564 5560 5556 5552 5547 5543 5540 5537 5534 5532 5530 5528 5525 5524 5522 5521 5520 5519 5518 5518 5516 5515 5515 5514 5514 5515 5517
5646 5644 5640 5636 5631 5628 5624 5619 5613 5608 5603 5598 5592 5587 5582 5577 5571 5567 5562 5558 5553 5549 5546 5543 5540 5538 5536 5534 5531 5529 5528 5528 5527 5525 5524 5524 5523 5522 5521 5521 5520 5520 5520 5522
5642 5638 5636 5633 5630 5627 5624 5620 5615 5610 5605 5600 5594 5589 5583 5578 5573 5568 5564 5561 5557 5553 5550 5547 5545 5543 5541 5539 5536 5534 5533 5533 5533 5531 5530 5530 5530 5530 5529 5528 5528 5528 5529 5532
5649 5646 5642 5639 5635 5630 5626 5622 5617 5612 5607 5603 5598 5592 5586 5580 5576 5571 5567 5563 5559 5556 5554 5552 5550 5548 5546 5543 5541 5539 5538 5538 5537 5537 5537 5537 5537 5537 5537 5537 5536 5537 5537 5539
5652 5649 5645 5643 5640 5635 5630 5624 5620 5615 5611 5606 5600 5594 5589 5585 5580 5576 5571 5567 5563 5559 5557 5557 5555 5552 5550 5549 5547 5545 5544 5544 5543 5543 5544 5545 5545 5545 5545 5545 5545 5545 5546 5546
5652 5650 5648 5645 5642 5637 5632 5627 5623 5618 5613 5609 5603 5597 5592 5588 5585 5580 5575 5571 5569 5567 5565 5562 5559 5557 5555 5554 5553 5551 5550 5550 5550 5550 5550 5550 5550 5551 5551 5552 5553 5553 5554 5554
5651 5649 5647 5644 5641 5638 5635 5630 5625 5620 5616 5612 5606 5602 5597 5593 5589 5585 5579 5575 5574 5573 5571 5568 5565 5563 5561 5560 5559 5557 5557 5556 5556 5556 5557 5557 5557 5558 5558 5559 5560 5561 5562 5562
5650 5648 5646 5643 5640 5636 5634 5632 5628 5623 5618 5614 5610 5606 5601 5596 5593 5589 5587 5585 5583 5580 5577 5574 5571 5570 5568 5567 5565 5564 5563 5563 5563 5563 5563 5563 5564 5564 5566 5567 5567 5569 5570 5570
5649 5647 5645 5643 5639 5636 5634 5631 5629 5625 5621 5617 5614 5610 5606 5602 5599 5595 5591 5590 5589 5586 5583 5581 5579 5577 5575 5572 5571 5570 5570 5570 5570 5570 5571 5571 5572 5573 5573 5575 5575 5576 5577 5577
5647 5646 5644 5642 5639 5635 5631 5630 5628 5626 5624 5621 5618 5616 5612 5607 5604 5603 5602 5599 5596 5592 5590 5588 5586 5583 5581 5578 5577 5577 5576 5577 5577 5577 5578 5579 5580 5581 5581 5582 5583 5584 5585 5585
5646 5644 5642 5639 5636 5634 5632 5631 5628 5626 5624 5622 5621 5620 5618 5615 5612 5610 5607 5605 5602 5598 5596 5594 5592 5589 5587 5585 5584 5584 5584 5584 5584 5584 5585 5586 5587 5588 5589 5590 5591 5591 5592 5592
5643 5642 5640 5639 5637 5635 5633 5631 5628 5627 5626 5623 5623 5622 5621 5620 5618 5616 5613 5611 5609 5605 5603 5601 5598 5595 5593 5592 5592 5591 5591 5591 5591 5591 5592 5593 5593 5594 5595 5597 5598 5598 5599 5599
5641 5640 5638 5637 5637 5636 5635 5632 5630 5629 5629 5627 5625 5626 5625 5623 5622 5620 5618 5615 5613 5610 5609 5607 5604 5602 5600 5599 5599 5598 5598 5598 5598 5598 5599 5599 5600 5601 5602 5603 5604 5605 5605 5605